Regional Weather Roundup
Issued by NWS

Home | Current Version | Previous Version | Graphics & Text | Print | Product List | Glossary On
Versions: 1 2 3 4 5 6 7 8 9 10 11 12 13 14 15 16 17 18 19 20 21 22 23 24 25 26 27 28 29 30 31 32 33 34 35 36 37 38 39 40 41 42 43 44 45 46 47 48 49 50
000
ASUS43 KTOP 211059
RWRKS

WEATHER ROUNDUP FOR KANSAS
NATIONAL WEATHER SERVICE GOODLAND KS
500 AM CST SAT JAN 21 2017

NOTE:  "FAIR" INDICATES FEW OR NO CLOUDS BELOW 12,000 FEET WITH NO
SIGNIFICANT WEATHER AND/OR OBSTRUCTIONS TO VISIBILITY.

KSZ001>006-013>018-027>032-041>047-211200-
NORTHWEST KANSAS

CITY           SKY/WX    TMP DP  RH WIND       PRES   REMARKS
GOODLAND       CLEAR     25  23  92 SW5       29.42F
HAYS           CLEAR     30  29  96 NW5       29.47S
HILL CITY      CLEAR     31  30  96 W7        29.46S
RUSSELL        CLEAR     32  30  92 SW9       29.46R
$$

KSZ061>065-074>080-084>089-211200-
SOUTHWEST KANSAS

CITY           SKY/WX    TMP DP  RH WIND       PRES   REMARKS
DODGE CITY     CLOUDY    28  25  88 NW7       29.46F
ELKHART          N/A     31  21  66 SW8         N/A
GARDEN CITY    CLEAR     25  23  92 N7        29.44F
GREAT BEND     CLEAR     32  31  96 W8        29.47F
LIBERAL        CLOUDY    32  27  80 S12       29.45S WCI  23
$$

KSZ066>073-081>083-090>101-211200-
SOUTHEAST KANSAS

CITY           SKY/WX    TMP DP  RH WIND       PRES   REMARKS
CHANUTE        CLEAR     40  37  89 SW9       29.50F
COFFEYVILLE    CLEAR     42  36  79 SW7       29.52F
HUTCHINSON     CLEAR     35  32  88 W6        29.47F
MEDICINE LODGE   N/A     32  30  92 N3        29.47F
NEWTON         CLEAR     35  34  96 W10       29.49S WCI  27
PARSONS        CLEAR     38  34  85 CALM      29.52S
WICHITA INTL   CLEAR     32  30  92 W3        29.49F
WICHITA JABRA  CLEAR     34  33  96 W7        29.49F
WINFIELD       CLEAR     32  30  92 S5        29.51F
$$

KSZ007>012-019>026-033>040-048>060-102>105-211200-
NORTHEAST KANSAS

CITY           SKY/WX    TMP DP  RH WIND       PRES   REMARKS
CONCORDIA      CLEAR     36  35  96 W8        29.43R
EMPORIA        CLEAR     36  35  96 SW7       29.47R
LAWRENCE       FOG       36  36 100 CALM      29.46S VSB 1/4
MANHATTAN      CLEAR     37  36  96 SW8       29.45R FOG
OLATHE IND     FOG       37  36  96 SW9       29.45S VSB 3/4
OLATHE EXE     MOCLDY    38  38 100 W9        29.45S FOG
SALINA           N/A    N/A N/A N/A MISG        N/A
TOPEKA BILLARD MOCLDY    37  34  89 CALM      29.46R FOG
TOPEKA FORBES  CLEAR     36  35  96 SW7       29.45S FOG
$$




USA.gov is the U.S. government's official web portal to all federal, state and local government web resources and services.